Back to catalog

CZ-6A DEB

AlivePO
NORAD 61425·DEBRIS·🇨🇳 China

Launched Aug 6, 2024 from Taiyuan Satellite Launch Center

Loading…

Next Passes (next 24 hours)

TLE

FreshSource: Space-Track

Epoch: Sep 14, 2026, 10:47 UTC

1 61425U 24140YS  26257.44951728  .00000193  00000-0  85821-4 0  9992
2 61425  89.0035 265.5177 0051502 278.0862  81.4486 14.18435784106748

Track CZ-6A DEB in real time with AllMySat

Download on the App Store